Time,TemperatureF,DewpointF,PressureIn,WindDirection,WindDirectionDegrees,WindSpeedMPH,WindSpeedGustMPH,Humidity,HourlyPrecipIn,Conditions,Clouds,dailyrainin,SoftwareType,DateUTC
2013-01-10 00:04:00,21.2,2.2,23.15,ENE,58,0.0,0.0,43,0.00,,---,0.00,VWS V14.00,2013-01-10 07:04:00,
2013-01-10 00:09:00,21.2,2.2,23.15,ENE,58,0.0,0.0,43,0.00,,---,0.00,VWS V14.00,2013-01-10 07:09:00,
2013-01-10 00:14:00,21.0,2.0,23.12,ENE,58,0.0,0.0,43,0.00,,---,0.00,VWS V14.00,2013-01-10 07:14:00,
2013-01-10 00:19:00,21.0,2.0,23.12,ENE,58,0.0,0.0,43,0.00,,---,0.00,VWS V14.00,2013-01-10 07:19:00,
2013-01-10 00:24:00,21.0,2.0,23.12,ENE,58,0.0,0.0,43,0.00,,---,0.00,VWS V14.00,2013-01-10 07:24:00,
2013-01-10 00:29:00,21.0,2.0,23.12,ENE,58,0.0,0.0,43,0.00,,---,0.00,VWS V14.00,2013-01-10 07:29:00,
2013-01-10 00:34:00,21.0,2.0,23.12,ENE,58,0.0,0.0,43,0.00,,---,0.00,VWS V14.00,2013-01-10 07:34:00,
2013-01-10 00:39:00,21.0,2.0,23.12,ENE,58,0.0,0.0,43,0.00,,---,0.00,VWS V14.00,2013-01-10 07:39:00,
2013-01-10 00:44:00,20.8,1.9,23.12,ENE,58,0.0,0.0,43,0.00,,---,0.00,VWS V14.00,2013-01-10 07:44:00,
2013-01-10 00:49:00,20.7,1.7,23.12,ENE,58,0.0,0.0,43,0.00,,---,0.00,VWS V14.00,2013-01-10 07:49:00,
2013-01-10 00:55:00,20.5,1.5,23.12,ENE,58,0.0,0.0,43,0.00,,---,0.00,VWS V14.00,2013-01-10 07:55:00,
2013-01-10 01:00:00,20.5,1.5,23.09,ENE,58,0.0,0.0,43,0.00,,---,0.00,VWS V14.00,2013-01-10 08:00:00,
2013-01-10 01:05:00,20.5,1.5,23.09,North,11,0.0,0.0,43,0.00,,---,0.00,VWS V14.00,2013-01-10 08:05:00,
2013-01-10 01:10:00,20.3,1.4,23.09,North,11,0.0,0.0,43,0.00,,---,0.00,VWS V14.00,2013-01-10 08:10:00,
2013-01-10 01:15:00,20.3,1.4,23.09,North,11,0.0,0.0,43,0.00,,---,0.00,VWS V14.00,2013-01-10 08:15:00,
2013-01-10 01:20:00,20.3,1.4,23.09,North,11,0.0,0.0,43,0.00,,---,0.00,VWS V14.00,2013-01-10 08:20:00,
2013-01-10 01:25:00,20.3,1.4,23.09,North,11,0.0,0.0,43,0.00,,---,0.00,VWS V14.00,2013-01-10 08:25:00,
2013-01-10 01:30:00,20.1,1.2,23.09,North,11,0.0,0.0,43,0.00,,---,0.00,VWS V14.00,2013-01-10 08:30:00,
2013-01-10 01:35:00,20.1,1.2,23.09,North,11,0.0,0.0,43,0.00,,---,0.00,VWS V14.00,2013-01-10 08:35:00,
2013-01-10 01:40:00,20.1,1.2,23.09,North,11,0.0,0.0,43,0.00,,---,0.00,VWS V14.00,2013-01-10 08:40:00,
2013-01-10 01:45:00,19.9,1.1,23.06,North,11,0.0,0.0,43,0.00,,---,0.00,VWS V14.00,2013-01-10 08:45:00,
2013-01-10 01:50:00,19.9,1.1,23.06,North,11,0.0,0.0,43,0.00,,---,0.00,VWS V14.00,2013-01-10 08:50:00,
2013-01-10 01:55:00,19.9,1.1,23.06,North,11,0.0,0.0,43,0.00,,---,0.00,VWS V14.00,2013-01-10 08:55:00,
2013-01-10 02:00:00,19.9,1.1,23.09,North,11,0.0,0.0,43,0.00,,---,0.00,VWS V14.00,2013-01-10 09:00:00,
2013-01-10 02:05:00,19.8,0.9,23.09,North,11,0.0,0.0,43,0.00,,---,0.00,VWS V14.00,2013-01-10 09:05:00,
2013-01-10 02:10:00,19.6,0.7,23.09,North,353,0.0,0.0,43,0.00,,---,0.00,VWS V14.00,2013-01-10 09:10:00,
2013-01-10 02:15:00,19.6,0.7,23.06,North,353,0.0,0.0,43,0.00,,---,0.00,VWS V14.00,2013-01-10 09:15:00,
2013-01-10 02:20:00,19.6,0.7,23.06,North,353,0.0,0.0,43,0.00,,---,0.00,VWS V14.00,2013-01-10 09:20:00,
2013-01-10 02:26:00,19.6,0.7,23.06,North,353,0.0,0.0,43,0.00,,---,0.00,VWS V14.00,2013-01-10 09:26:00,
2013-01-10 02:31:00,19.6,0.7,23.06,North,353,0.0,0.0,43,0.00,,---,0.00,VWS V14.00,2013-01-10 09:31:00,
2013-01-10 02:36:00,19.6,0.7,23.06,North,353,0.0,0.0,43,0.00,,---,0.00,VWS V14.00,2013-01-10 09:36:00,
2013-01-10 02:41:00,19.4,1.1,23.06,North,353,0.0,0.0,44,0.00,,---,0.00,VWS V14.00,2013-01-10 09:41:00,
2013-01-10 02:46:00,19.6,0.7,23.06,North,353,0.0,0.0,43,0.00,,---,0.00,VWS V14.00,2013-01-10 09:46:00,
2013-01-10 02:51:00,19.4,1.1,23.06,North,353,0.0,0.0,44,0.00,,---,0.00,VWS V14.00,2013-01-10 09:51:00,
2013-01-10 02:56:00,19.4,1.1,23.06,North,353,0.0,0.0,44,0.00,,---,0.00,VWS V14.00,2013-01-10 09:56:00,
2013-01-10 03:01:00,19.4,1.1,23.06,North,353,0.0,0.0,44,0.00,,---,0.00,VWS V14.00,2013-01-10 10:01:00,
2013-01-10 03:06:00,19.6,1.2,23.06,North,353,0.0,0.0,44,0.00,,---,0.00,VWS V14.00,2013-01-10 10:06:00,
2013-01-10 03:11:00,19.6,1.2,23.06,North,353,0.0,0.0,44,0.00,,---,0.00,VWS V14.00,2013-01-10 10:11:00,
2013-01-10 03:16:00,19.6,1.2,23.03,North,353,0.0,0.0,44,0.00,,---,0.00,VWS V14.00,2013-01-10 10:16:00,
2013-01-10 03:21:00,19.6,1.2,23.03,North,353,0.0,0.0,44,0.00,,---,0.00,VWS V14.00,2013-01-10 10:21:00,
2013-01-10 03:26:00,19.6,1.2,23.03,North,353,0.0,0.0,44,0.00,,---,0.00,VWS V14.00,2013-01-10 10:26:00,
2013-01-10 03:31:00,19.6,1.2,23.06,North,353,0.0,0.0,44,0.00,,---,0.00,VWS V14.00,2013-01-10 10:31:00,
2013-01-10 03:36:00,19.6,1.2,23.06,North,353,0.0,0.0,44,0.00,,---,0.00,VWS V14.00,2013-01-10 10:36:00,
2013-01-10 03:41:00,19.6,1.2,23.06,North,353,0.0,0.0,44,0.00,,---,0.00,VWS V14.00,2013-01-10 10:41:00,
2013-01-10 03:47:00,19.6,1.2,23.03,North,353,0.0,0.0,44,0.00,,---,0.00,VWS V14.00,2013-01-10 10:47:00,
2013-01-10 03:52:00,19.8,1.4,23.03,North,353,0.0,0.0,44,0.00,,---,0.00,VWS V14.00,2013-01-10 10:52:00,
2013-01-10 03:57:00,19.8,1.4,23.03,North,353,0.0,0.0,44,0.00,,---,0.00,VWS V14.00,2013-01-10 10:57:00,
2013-01-10 04:02:00,19.8,1.4,23.03,North,353,0.0,0.0,44,0.00,,---,0.00,VWS V14.00,2013-01-10 11:02:00,
2013-01-10 04:07:00,19.8,1.4,23.03,North,353,0.0,0.0,44,0.00,,---,0.00,VWS V14.00,2013-01-10 11:07:00,
2013-01-10 04:12:00,19.6,1.2,23.03,North,353,0.0,0.0,44,0.00,,---,0.00,VWS V14.00,2013-01-10 11:12:00,
2013-01-10 04:17:00,19.6,1.2,23.03,North,353,0.0,0.0,44,0.00,,---,0.00,VWS V14.00,2013-01-10 11:17:00,
2013-01-10 04:22:00,19.6,1.2,23.03,North,353,0.0,0.0,44,0.00,,---,0.00,VWS V14.00,2013-01-10 11:22:00,
2013-01-10 04:27:00,19.6,1.2,23.03,North,353,0.0,0.0,44,0.00,,---,0.00,VWS V14.00,2013-01-10 11:27:00,
2013-01-10 04:32:00,19.6,1.2,23.03,North,353,0.0,0.0,44,0.00,,---,0.00,VWS V14.00,2013-01-10 11:32:00,
2013-01-10 04:37:00,19.6,1.2,23.03,North,353,0.0,0.0,44,0.00,,---,0.00,VWS V14.00,2013-01-10 11:37:00,
2013-01-10 04:42:00,19.6,1.2,23.03,North,353,0.0,0.0,44,0.00,,---,0.00,VWS V14.00,2013-01-10 11:42:00,
2013-01-10 04:47:00,19.6,1.2,23.00,North,353,0.0,0.0,44,0.00,,---,0.00,VWS V14.00,2013-01-10 11:47:00,
2013-01-10 04:52:00,19.8,1.4,23.00,North,353,0.0,0.0,44,0.00,,---,0.00,VWS V14.00,2013-01-10 11:52:00,
2013-01-10 04:58:00,19.8,1.4,23.00,North,353,0.0,0.0,44,0.00,,---,0.00,VWS V14.00,2013-01-10 11:58:00,
2013-01-10 05:03:00,19.8,1.4,23.00,North,353,0.0,0.0,44,0.00,,---,0.00,VWS V14.00,2013-01-10 12:03:00,
2013-01-10 05:08:00,19.8,1.4,23.00,North,353,0.0,0.0,44,0.00,,---,0.00,VWS V14.00,2013-01-10 12:08:00,
2013-01-10 05:13:00,19.8,1.4,23.00,North,353,0.0,0.0,44,0.00,,---,0.00,VWS V14.00,2013-01-10 12:13:00,
2013-01-10 05:18:00,19.8,1.4,23.00,North,353,0.0,0.0,44,0.00,,---,0.00,VWS V14.00,2013-01-10 12:18:00,
2013-01-10 05:23:00,19.8,1.4,23.00,North,353,0.0,0.0,44,0.00,,---,0.00,VWS V14.00,2013-01-10 12:23:00,
2013-01-10 05:28:00,19.8,1.4,23.00,North,353,0.0,0.0,44,0.00,,---,0.00,VWS V14.00,2013-01-10 12:28:00,
2013-01-10 05:33:00,19.9,1.5,23.00,North,353,0.0,0.0,44,0.00,,---,0.00,VWS V14.00,2013-01-10 12:33:00,
2013-01-10 05:38:00,19.9,1.5,23.00,North,353,0.0,0.0,44,0.00,,---,0.00,VWS V14.00,2013-01-10 12:38:00,
2013-01-10 05:43:00,20.1,1.7,23.00,North,353,0.0,0.0,44,0.00,,---,0.00,VWS V14.00,2013-01-10 12:43:00,
2013-01-10 05:48:00,20.1,1.7,23.00,North,353,0.0,0.0,44,0.00,,---,0.00,VWS V14.00,2013-01-10 12:48:00,
2013-01-10 05:53:00,20.1,1.7,23.00,North,353,0.0,0.0,44,0.00,,---,0.00,VWS V14.00,2013-01-10 12:53:00,
2013-01-10 05:58:00,20.3,1.9,23.00,North,353,0.0,0.0,44,0.00,,---,0.00,VWS V14.00,2013-01-10 12:58:00,
2013-01-10 06:03:00,20.3,1.9,23.00,North,353,0.0,0.0,44,0.00,,---,0.00,VWS V14.00,2013-01-10 13:03:00,
2013-01-10 06:08:00,20.3,1.9,23.00,North,353,0.0,0.0,44,0.00,,---,0.00,VWS V14.00,2013-01-10 13:08:00,
2013-01-10 06:13:00,20.3,1.9,23.00,North,353,0.0,0.0,44,0.00,,---,0.00,VWS V14.00,2013-01-10 13:13:00,
2013-01-10 06:18:00,20.5,2.0,23.00,North,353,0.0,0.0,44,0.00,,---,0.00,VWS V14.00,2013-01-10 13:18:00,
2013-01-10 06:23:00,20.5,2.0,23.00,North,353,0.0,0.0,44,0.00,,---,0.00,VWS V14.00,2013-01-10 13:23:00,
2013-01-10 06:28:00,20.5,2.0,23.00,North,353,0.0,0.0,44,0.00,,---,0.00,VWS V14.00,2013-01-10 13:28:00,
2013-01-10 06:34:00,20.7,2.2,23.00,North,353,0.0,0.0,44,0.00,,---,0.00,VWS V14.00,2013-01-10 13:34:00,
2013-01-10 06:39:00,20.7,2.2,23.00,North,353,0.0,0.0,44,0.00,,---,0.00,VWS V14.00,2013-01-10 13:39:00,
2013-01-10 06:44:00,20.7,2.2,23.00,North,353,0.0,0.0,44,0.00,,---,0.00,VWS V14.00,2013-01-10 13:44:00,
2013-01-10 06:49:00,20.7,2.2,23.00,North,353,0.0,0.0,44,0.00,,---,0.00,VWS V14.00,2013-01-10 13:49:00,
2013-01-10 06:54:00,20.8,2.4,23.00,North,353,0.0,0.0,44,0.00,,---,0.00,VWS V14.00,2013-01-10 13:54:00,
2013-01-10 06:59:00,20.8,2.4,23.00,North,353,0.0,0.0,44,0.00,,---,0.00,VWS V14.00,2013-01-10 13:59:00,
2013-01-10 07:04:00,20.8,2.4,23.00,North,353,0.0,0.0,44,0.00,,---,0.00,VWS V14.00,2013-01-10 14:04:00,
2013-01-10 07:09:00,21.0,2.5,23.00,North,353,0.0,0.0,44,0.00,,---,0.00,VWS V14.00,2013-01-10 14:09:00,
2013-01-10 07:14:00,21.2,2.7,22.97,North,353,0.0,0.0,44,0.00,,---,0.00,VWS V14.00,2013-01-10 14:14:00,
2013-01-10 07:19:00,21.9,2.9,22.97,North,353,0.0,0.0,43,0.00,,---,0.00,VWS V14.00,2013-01-10 14:19:00,
2013-01-10 07:24:00,22.6,3.5,22.97,North,353,0.0,0.0,43,0.00,,---,0.00,VWS V14.00,2013-01-10 14:24:00,
2013-01-10 07:29:00,23.4,4.2,22.97,WSW,239,0.0,0.0,43,0.00,,---,0.00,VWS V14.00,2013-01-10 14:29:00,
2013-01-10 07:34:00,24.1,4.8,22.97,SSW,200,0.0,0.0,43,0.00,,---,0.00,VWS V14.00,2013-01-10 14:34:00,
2013-01-10 07:39:00,24.8,5.5,22.97,South,191,0.0,0.0,43,0.00,,---,0.00,VWS V14.00,2013-01-10 14:39:00,
2013-01-10 07:44:00,25.3,5.5,22.97,WSW,251,0.0,3.1,42,0.00,,---,0.00,VWS V14.00,2013-01-10 14:44:00,
2013-01-10 07:49:00,26.1,6.1,22.97,West,266,0.0,2.7,42,0.00,,---,0.00,VWS V14.00,2013-01-10 14:49:00,
2013-01-10 07:55:00,26.6,6.6,22.97,SW,224,2.2,2.2,42,0.00,,---,0.00,VWS V14.00,2013-01-10 14:55:00,
2013-01-10 08:00:00,27.1,6.6,22.97,SW,217,0.0,0.0,41,0.00,,---,0.00,VWS V14.00,2013-01-10 15:00:00,
2013-01-10 21:58:00,29.5,10.3,22.74,WSW,253,5.8,5.8,44,0.00,,---,0.00,VWS V14.00,2013-01-11 04:58:00,
2013-01-10 22:01:00,29.3,10.1,22.77,WNW,301,6.3,10.1,44,0.00,,---,0.00,VWS V14.00,2013-01-11 05:01:00,
2013-01-10 22:03:00,29.1,9.9,22.77,SW,224,4.0,4.9,44,0.00,,---,0.00,VWS V14.00,2013-01-11 05:03:00,
2013-01-10 22:06:00,29.1,9.9,22.77,SW,231,7.6,11.0,44,0.00,,---,0.00,VWS V14.00,2013-01-11 05:06:00,
2013-01-10 22:11:00,28.8,9.6,22.77,WNW,283,5.4,5.4,44,0.00,,---,0.00,VWS V14.00,2013-01-11 05:11:00,
2013-01-10 22:16:00,28.6,8.9,22.77,West,274,7.6,7.6,43,0.00,,---,0.00,VWS V14.00,2013-01-11 05:16:00,
2013-01-10 22:21:00,28.2,8.6,22.77,WSW,251,6.3,8.7,43,0.00,,---,0.00,VWS V14.00,2013-01-11 05:21:00,
2013-01-10 22:26:00,28.0,8.4,22.77,SW,232,4.0,4.0,43,0.00,,---,0.00,VWS V14.00,2013-01-11 05:26:00,
2013-01-10 22:31:00,27.5,7.4,22.77,West,264,5.4,7.6,42,0.00,,---,0.00,VWS V14.00,2013-01-11 05:31:00,
2013-01-10 22:36:00,26.8,6.8,22.77,WSW,253,5.4,5.4,42,0.00,,---,0.00,VWS V14.00,2013-01-11 05:36:00,
2013-01-10 22:41:00,26.2,6.3,22.77,NW,311,5.4,5.4,42,0.00,,---,0.00,VWS V14.00,2013-01-11 05:41:00,
2013-01-10 22:46:00,25.9,6.5,22.77,West,277,6.3,6.3,43,0.00,,---,0.00,VWS V14.00,2013-01-11 05:46:00,
2013-01-10 22:51:00,25.5,5.6,22.77,WSW,248,8.7,10.1,42,0.00,,---,0.00,VWS V14.00,2013-01-11 05:51:00,
2013-01-10 22:56:00,25.3,5.5,22.77,SSW,208,3.6,6.3,42,0.00,,---,0.00,VWS V14.00,2013-01-11 05:56:00,
2013-01-10 23:02:00,25.2,5.3,22.77,West,270,10.5,13.2,42,0.00,,---,0.00,VWS V14.00,2013-01-11 06:02:00,
2013-01-10 23:07:00,25.0,5.1,22.77,WSW,248,7.2,7.6,42,0.00,,---,0.00,VWS V14.00,2013-01-11 06:07:00,
2013-01-10 23:12:00,25.0,5.1,22.77,SW,229,3.1,10.1,42,0.00,,---,0.00,VWS V14.00,2013-01-11 06:12:00,
2013-01-10 23:17:00,25.0,5.1,22.77,WSW,241,7.6,7.6,42,0.00,,---,0.00,VWS V14.00,2013-01-11 06:17:00,
2013-01-10 23:22:00,25.0,5.1,22.77,SW,236,0.0,4.9,42,0.00,,---,0.00,VWS V14.00,2013-01-11 06:22:00,
2013-01-10 23:27:00,25.0,5.1,22.77,WSW,253,4.9,8.1,42,0.00,,---,0.00,VWS V14.00,2013-01-11 06:27:00,
2013-01-10 23:32:00,25.0,5.1,22.77,West,260,3.6,6.3,42,0.00,,---,0.00,VWS V14.00,2013-01-11 06:32:00,
2013-01-10 23:37:00,24.8,5.5,22.77,West,266,6.7,6.7,43,0.00,,---,0.00,VWS V14.00,2013-01-11 06:37:00,
2013-01-10 23:42:00,24.8,5.5,22.77,SW,225,2.7,4.9,43,0.00,,---,0.00,VWS V14.00,2013-01-11 06:42:00,
2013-01-10 23:47:00,24.6,5.3,22.77,SW,233,5.4,5.4,43,0.00,,---,0.00,VWS V14.00,2013-01-11 06:47:00,
2013-01-10 23:52:00,24.6,5.3,22.77,WSW,256,7.2,7.2,43,0.00,,---,0.00,VWS V14.00,2013-01-11 06:52:00,
2013-01-10 23:57:00,24.6,5.3,22.77,WNW,289,5.4,5.4,43,0.00,,---,0.00,VWS V14.00,2013-01-11 06:57:00,